Regional Weather Roundup
Issued by NWS Kansas City/Pleasant Hill, MO

Home | Current Version | Previous Version | Text Only | Print | Product List | Glossary On
Versions: 1 2 3 4 5 6 7 8 9 10 11 12 13 14 15 16 17 18 19 20 21 22 23 24 25 26 27 28 29 30 31 32 33 34 35 36 37 38 39 40 41 42 43 44 45 46 47 48 49 50
000
ASUS43 KEAX 241110
RWREAX

WEATHER ROUNDUP FOR EASTERN KANSAS AND NORTHWEST MISSOURI
NATIONAL WEATHER SERVICE KANSAS CITY/PLEASANT HILL MO
600 AM CDT THU APR 24 2014

KSZ040-057-103>105-MOZ028-029-037-043-241200-
...KANSAS CITY METROPOLITAN AREA...

CITY           SKY/WX    TMP DP  RH WIND       PRES   REMARKS
K.C. INTL      CLOUDY    64  49  57 SE13      29.64F
K.C. DOWNTOWN  CLOUDY    64  52  64 E3        29.65S
LEES SUMMIT    LGT RAIN  64  48  56 CALM      29.67R
OLATHE - IXD   CLOUDY    64  51  62 VRB3      29.65R
OLATHE - OJC   CLOUDY    62  48  60 E9        29.65R
LAWRENCE       LGT RAIN  69  56  62 S10       29.63S

$$

MOZ001>008-011>017-020>025-030>033-038>040-044>046-053-054-241200-
...NORTHERN AND CENTRAL MISSOURI...

CITY           SKY/WX    TMP DP  RH WIND       PRES   REMARKS
ST. JOSEPH     CLOUDY    65  52  62 SE14      29.62F
MOSBY          LGT RAIN  63  50  63 SE6       29.66F
WARRENSBURG    CLOUDY   N/A N/A N/A SW8G22    29.68R
WHITEMAN AFB   CLOUDY    63  35  35 S21G32    29.64F
CLINTON        CLOUDY    61  48  63 SE14G21   29.67F HAZE
SEDALIA        CLOUDY    62  39  42 S22G28    29.70F
WARSAW         NOT AVBL
MARSHALL         N/A     64  41  42 SE17G25   29.68F
CHILLICOTHE      N/A     58  45  62 E6        29.71R
MOBERLY        CLOUDY    57  37  47 SE16G22   29.75S
KIRKSVILLE     CLOUDY    54  37  52 SE20      29.72F

$$

MOZ041-047>049-056>058-063>065-088>090-097-241200-
...EASTERN AND SOUTHERN MISSOURI...

CITY           SKY/WX    TMP DP  RH WIND       PRES   REMARKS
ST. LOUIS INTL MOCLDY    53  34  48 SE9       29.88F
SPIRIT OF STL  MOCLDY    53  33  46 VRB3      29.86F
COLUMBIA       MOCLDY    57  37  47 S15       29.77F
JEFFERSON CITY MOCLDY    60  36  40 SE14      29.76F
MEXICO         MOCLDY    50  37  62 SE14      29.77F
HANNIBAL       PTCLDY    55  28  35 SE12G21   29.80S
ROLLA          PTCLDY    56  33  42 SE16G24   29.79F
LEBANON        CLOUDY    59  36  41 SE18G28   29.74F
OSAGE BEACH    CLOUDY    59  36  41 S12G18    29.78R
SPRINGFIELD    CLOUDY    62  41  46 SE21      29.73R
BRANSON        CLOUDY    59  41  51 SE14      29.79F
NEVADA         CLOUDY    63  46  55 SE16G24   29.66F
JOPLIN         TSTM      64  52  64 SE8       29.67F
WEST PLAINS    MOCLDY    54  37  52 SE7       29.86F
MALDEN         MOCLDY    48  43  81 E3        29.92S

$$

IAZ060-094-KSZ022-034>040-054-083-096-NEZ052-066-093-241200-
...KANSAS...SOUTHEAST NEBRASKA AND IOWA...

CITY           SKY/WX    TMP DP  RH WIND       PRES   REMARKS
TOPEKA         TSTM      68  58  70 S9        29.62R
MANHATTAN      LGT RAIN  56  32  40 N6        29.64S
EMPORIA        LGT RAIN  65  57  75 S21G31    29.59R
CHANUTE        CLOUDY    67  54  63 S14       29.63R
WICHITA        TSTM      65  59  81 NW15      29.63R
OMAHA          CLOUDY    49  45  86 N6        29.62F
LINCOLN        RAIN      52  49  89 SW3       29.70R FOG
FALLS CITY     CLOUDY    54  48  80 SE5       29.59F
LAMONI         CLOUDY    56  43  61 SE15G22   29.65F
DES MOINES     CLOUDY    51  42  71 SE15G25   29.66F

$$




USA.gov is the U.S. government's official web portal to all federal, state and local government web resources and services.